TimeEST,TemperatureF,Dew PointF,Humidity,Sea Level PressureIn,VisibilityMPH,Wind Direction,Wind SpeedMPH,Gust SpeedMPH,PrecipitationIn,Events,Conditions,WindDirDegrees,DateUTC
12:15 AM,32.0,29.5,90,30.14,10.0,Calm,Calm,-,N/A,,Clear,0,2014-01-13 05:15:00
12:35 AM,32.2,29.5,90,30.14,10.0,Calm,Calm,-,N/A,,Clear,0,2014-01-13 05:35:00
12:55 AM,31.1,28.9,92,30.14,10.0,Calm,Calm,-,N/A,,Clear,0,2014-01-13 05:55:00
1:15 AM,30.7,28.9,93,30.14,10.0,Calm,Calm,-,N/A,,Clear,0,2014-01-13 06:15:00
1:35 AM,31.5,29.5,92,30.14,10.0,Calm,Calm,-,N/A,,Clear,0,2014-01-13 06:35:00
1:55 AM,29.8,28.0,93,30.13,10.0,Calm,Calm,-,N/A,,Clear,0,2014-01-13 06:55:00
2:15 AM,30.9,29.1,93,30.13,10.0,Calm,Calm,-,N/A,,Clear,0,2014-01-13 07:15:00
2:35 AM,30.0,28.8,95,30.13,10.0,Calm,Calm,-,N/A,,Clear,0,2014-01-13 07:35:00
2:55 AM,30.2,28.6,94,30.13,10.0,Calm,Calm,-,N/A,,Clear,0,2014-01-13 07:55:00
3:15 AM,30.2,28.9,95,30.13,10.0,Calm,Calm,-,N/A,,Clear,0,2014-01-13 08:15:00
3:35 AM,29.7,28.0,94,30.13,10.0,Calm,Calm,-,N/A,,Clear,0,2014-01-13 08:35:00
3:55 AM,29.5,28.4,96,30.13,10.0,Calm,Calm,-,N/A,,Clear,0,2014-01-13 08:55:00
4:15 AM,29.7,28.4,95,30.12,10.0,SSW,3.5,-,N/A,,Clear,210,2014-01-13 09:15:00
4:35 AM,31.5,29.8,94,30.12,10.0,Calm,Calm,-,N/A,,Clear,0,2014-01-13 09:35:00
4:55 AM,32.0,29.1,89,30.11,10.0,Calm,Calm,-,N/A,,Clear,0,2014-01-13 09:55:00
5:15 AM,30.7,28.6,92,30.11,10.0,Calm,Calm,-,N/A,,Clear,0,2014-01-13 10:15:00
5:35 AM,29.5,28.0,94,30.12,10.0,Calm,Calm,-,N/A,,Clear,0,2014-01-13 10:35:00
5:55 AM,28.4,27.5,96,30.12,10.0,Calm,Calm,-,N/A,,Clear,0,2014-01-13 10:55:00
6:15 AM,28.0,27.1,96,30.12,10.0,Calm,Calm,-,N/A,,Clear,0,2014-01-13 11:15:00
6:35 AM,27.5,26.8,97,30.13,10.0,Calm,Calm,-,N/A,,Clear,0,2014-01-13 11:35:00
6:55 AM,28.0,27.3,97,30.12,7.0,Calm,Calm,-,N/A,,Clear,0,2014-01-13 11:55:00
7:15 AM,27.3,26.6,97,30.11,7.0,Calm,Calm,-,N/A,,Clear,0,2014-01-13 12:15:00
7:35 AM,26.6,26.1,98,30.12,10.0,Calm,Calm,-,N/A,,Clear,0,2014-01-13 12:35:00
7:55 AM,26.6,26.1,98,30.12,10.0,Calm,Calm,-,N/A,,Clear,0,2014-01-13 12:55:00
8:15 AM,27.1,26.6,98,30.13,10.0,Calm,Calm,-,N/A,,Clear,0,2014-01-13 13:15:00
8:35 AM,29.8,29.3,98,30.13,10.0,Calm,Calm,-,N/A,,Clear,0,2014-01-13 13:35:00
8:55 AM,32.0,31.8,99,30.12,10.0,Calm,Calm,-,N/A,,Clear,0,2014-01-13 13:55:00
9:15 AM,35.8,34.3,94,30.12,10.0,Calm,Calm,-,N/A,,Clear,0,2014-01-13 14:15:00
9:35 AM,40.5,36.0,84,30.12,10.0,Calm,Calm,-,N/A,,Clear,0,2014-01-13 14:35:00
9:55 AM,43.7,36.3,75,30.14,10.0,WSW,3.5,-,N/A,,Clear,240,2014-01-13 14:55:00
10:15 AM,45.0,36.5,72,30.12,10.0,SSW,3.5,-,N/A,,Clear,210,2014-01-13 15:15:00
10:35 AM,46.8,36.9,68,30.11,10.0,SSW,3.5,-,N/A,,Clear,200,2014-01-13 15:35:00
10:55 AM,49.3,37.4,64,30.09,10.0,SW,3.5,-,N/A,,Clear,220,2014-01-13 15:55:00
11:15 AM,51.6,37.2,58,30.09,10.0,WSW,6.9,-,N/A,,Clear,240,2014-01-13 16:15:00
11:35 AM,53.2,36.9,54,30.08,10.0,SW,10.4,-,N/A,,Clear,230,2014-01-13 16:35:00
11:55 AM,53.8,36.7,52,30.07,10.0,SW,9.2,16.1,N/A,,Clear,230,2014-01-13 16:55:00
12:15 PM,54.1,37.4,53,30.05,10.0,SW,9.2,16.1,N/A,,Clear,230,2014-01-13 17:15:00
12:35 PM,56.5,36.9,48,30.03,10.0,WSW,8.1,-,N/A,,Clear,240,2014-01-13 17:35:00
12:55 PM,56.7,36.1,46,30.03,10.0,SSW,11.5,19.6,N/A,,Clear,200,2014-01-13 17:55:00
1:15 PM,56.5,36.1,47,30.03,10.0,SW,11.5,18.4,N/A,,Clear,220,2014-01-13 18:15:00
1:35 PM,57.6,36.7,46,30.03,10.0,SSW,16.1,23.0,N/A,,Clear,210,2014-01-13 18:35:00
1:55 PM,57.2,36.5,46,30.01,10.0,SSW,13.8,18.4,N/A,,Clear,210,2014-01-13 18:55:00
2:15 PM,57.4,36.0,45,30.00,10.0,SSW,12.7,18.4,N/A,,Clear,210,2014-01-13 19:15:00
2:35 PM,57.0,35.6,45,30.01,10.0,SSW,11.5,21.9,N/A,,Clear,210,2014-01-13 19:35:00
2:55 PM,56.8,35.8,45,30.00,10.0,SSW,10.4,16.1,N/A,,Clear,210,2014-01-13 19:55:00
3:15 PM,57.2,36.1,45,30.00,10.0,SSW,5.8,-,N/A,,Clear,200,2014-01-13 20:15:00
3:35 PM,57.4,35.8,44,30.01,10.0,SW,9.2,-,N/A,,Clear,220,2014-01-13 20:35:00
3:55 PM,57.2,35.2,44,29.99,10.0,SSW,10.4,-,N/A,,Clear,200,2014-01-13 20:55:00
4:15 PM,56.7,35.1,44,29.98,10.0,SSW,4.6,-,N/A,,Clear,210,2014-01-13 21:15:00
4:35 PM,56.3,35.4,46,29.98,10.0,SSW,3.5,-,N/A,,Clear,210,2014-01-13 21:35:00
4:55 PM,55.4,36.0,48,29.99,10.0,South,4.6,-,N/A,,Clear,190,2014-01-13 21:55:00
5:15 PM,55.4,35.4,47,29.99,10.0,SSW,5.8,16.1,N/A,,Clear,210,2014-01-13 22:15:00
5:35 PM,54.5,35.2,48,29.98,10.0,SSW,4.6,-,N/A,,Clear,200,2014-01-13 22:35:00
5:55 PM,53.4,35.6,51,29.99,10.0,South,6.9,-,N/A,,Clear,190,2014-01-13 22:55:00
6:15 PM,53.4,36.0,52,29.98,10.0,South,5.8,-,N/A,,Clear,190,2014-01-13 23:15:00
6:35 PM,52.3,36.3,54,29.98,10.0,SSW,4.6,-,N/A,,Clear,200,2014-01-13 23:35:00
6:55 PM,52.0,36.5,56,29.99,10.0,SSW,6.9,-,N/A,,Clear,200,2014-01-13 23:55:00
7:15 PM,51.8,36.5,56,29.99,10.0,South,4.6,-,N/A,,Clear,190,2014-01-14 00:15:00
7:35 PM,51.3,36.5,57,29.99,10.0,South,3.5,-,N/A,,Clear,190,2014-01-14 00:35:00
7:55 PM,50.9,36.5,58,29.98,10.0,South,4.6,-,N/A,,Clear,180,2014-01-14 00:55:00
8:15 PM,50.4,36.5,59,29.98,10.0,SSW,3.5,-,N/A,,Clear,200,2014-01-14 01:15:00
8:35 PM,49.6,36.5,61,29.97,10.0,Calm,Calm,-,N/A,,Clear,0,2014-01-14 01:35:00
9:00 PM,49.5,37.0,62,29.97,10.0,Calm,Calm,-,N/A,,Clear,0,2014-01-14 02:00:00
9:15 PM,49.5,37.0,62,29.97,10.0,SSW,3.5,-,N/A,,Mostly Cloudy,210,2014-01-14 02:15:00
9:35 PM,49.3,37.4,64,29.96,10.0,Calm,Calm,-,N/A,,Overcast,0,2014-01-14 02:35:00
9:55 PM,46.9,40.3,78,29.97,10.0,SSW,3.5,-,N/A,Rain,Light Rain,210,2014-01-14 02:55:00
10:15 PM,45.1,41.5,87,29.97,10.0,Calm,Calm,-,N/A,Rain,Rain,0,2014-01-14 03:15:00
10:35 PM,45.3,41.9,88,29.97,10.0,South,3.5,-,N/A,Rain,Light Rain,170,2014-01-14 03:35:00
10:55 PM,45.1,42.1,89,29.96,10.0,Calm,Calm,-,N/A,Rain,Light Rain,0,2014-01-14 03:55:00
11:15 PM,45.0,42.1,90,29.95,10.0,Calm,Calm,-,0.01,Rain,Rain,0,2014-01-14 04:15:00
11:35 PM,45.0,42.4,91,29.95,10.0,SW,4.6,-,0.01,Rain,Light Rain,230,2014-01-14 04:35:00
11:55 PM,45.1,42.8,91,29.94,10.0,SSW,3.5,-,0.01,Rain,Rain,210,2014-01-14 04:55:00